Weather History for Plymouth, MA

Change the Weather History Date:

Sunday, March 17, 2013

  Actual Average Record
Temperature  
Mean Temperature 32 °F -  
Max Temperature 39 °F 48 °F 74 °F (1990)
Min Temperature 25 °F 26 °F 11 °F (1967)
Degree Days  
Heating Degree Days 33    
Moisture  
Dew Point 13 °F    
Average Humidity 49    
Maximum Humidity 72    
Minimum Humidity 24    
Precipitation  
Precipitation 0.00 in - - ()
Sea Level Pressure  
Sea Level Pressure 30.04 in    
Wind  
Wind Speed 5 mph (NW)    
Max Wind Speed 18 mph    
Max Gust Speed 23 mph    
Visibility 10 miles    
Events      
Averages and records for this station are not official NWS values.
T = Trace of Precipitation, MM = Missing Value Source: NWS Daily Summary

Daily Weather History Graph

Daily Weather History Graph

Search for Another Location

Airport:

Trip Planner

Search our weather history database for the weather conditions in past years. The results will help you decide how hot, cold, wet, or windy it might be!

Date:

Astronomy

Mar. 17, 2013 Rise Set
Actual Time 6:50 AM EDT 6:51 PM EDT
Civil Twilight 6:23 AM EDT 7:19 PM EDT
Nautical Twilight 5:50 AM EDT 7:52 PM EDT
Astronomical Twilight 5:17 AM EDT 8:25 PM EDT
Moon 9:56 AM EDT (3/17) 12:02 AM EDT (3/17)
Length of Visible Light 12h 56m
Length of Day
12h 00m
Waxing Crescent, 31% of the Moon is Illuminated
Mar 17
Waxing Crescent
Mar 19
First Quarter
Mar 27
Full
Apr 3
Last Quarter
Apr 10
New

Hourly Weather History & Observations

Time (EDT) Temp. Windchill Dew Point Humidity Pressure Visibility Wind Dir Wind Speed Gust Speed Precip Events Conditions
12:52 AM 30.0 °F - 19.9 °F 66% 29.87 in 10.0 mi Calm Calm - N/A   Overcast
1:52 AM 28.0 °F - 19.9 °F 72% 29.88 in 10.0 mi Calm Calm - N/A   Scattered Clouds
2:52 AM 28.0 °F 22.8 °F 19.0 °F 69% 29.88 in 10.0 mi NW 4.6 mph - N/A   Clear
3:52 AM 28.0 °F - 19.0 °F 69% 29.88 in 10.0 mi Calm Calm - N/A   Clear
4:52 AM 27.0 °F 23.0 °F 19.0 °F 72% 29.91 in 10.0 mi NNW 3.5 mph - N/A   Clear
5:52 AM 25.0 °F 20.7 °F 17.1 °F 72% 29.92 in 10.0 mi North 3.5 mph - N/A   Clear
6:52 AM 26.1 °F - 17.1 °F 69% 29.95 in 10.0 mi Calm Calm - N/A   Clear
7:52 AM 28.0 °F 20.0 °F 16.0 °F 61% 29.98 in 10.0 mi WNW 8.1 mph - N/A   Clear
8:52 AM 32.0 °F 24.2 °F 16.0 °F 52% 30.01 in 10.0 mi WNW 9.2 mph - N/A   Clear
9:52 AM 34.0 °F 25.5 °F 16.0 °F 48% 30.02 in 10.0 mi WNW 11.5 mph - N/A   Clear
10:52 AM 35.1 °F 27.9 °F 15.1 °F 44% 30.03 in 10.0 mi WNW 9.2 mph 23.0 mph N/A   Clear
12:52 PM 39.0 °F 34.0 °F 12.9 °F 34% 30.02 in 10.0 mi NW 6.9 mph 18.4 mph N/A   Clear
1:52 PM 39.0 °F 29.6 °F 12.0 °F 33% 30.02 in 10.0 mi NW 18.4 mph 23.0 mph N/A   Clear
2:52 PM 37.9 °F 30.0 °F 10.0 °F 32% 30.03 in 10.0 mi WNW 12.7 mph 19.6 mph N/A   Clear
3:52 PM 37.9 °F 30.9 °F 7.0 °F 28% 30.06 in 10.0 mi NNW 10.4 mph - N/A   Clear
4:52 PM 37.9 °F 29.6 °F 3.9 °F 24% 30.07 in 10.0 mi NW 13.8 mph 18.4 mph N/A   Clear
5:52 PM 36.0 °F 28.5 °F 5.0 °F 27% 30.11 in 10.0 mi NNW 10.4 mph 18.4 mph N/A   Clear
6:52 PM 34.0 °F 28.8 °F 5.0 °F 30% 30.14 in 10.0 mi NNW 5.8 mph - N/A   Clear
7:52 PM 30.9 °F 27.5 °F 6.1 °F 35% 30.19 in 10.0 mi North 3.5 mph - N/A   Clear
8:52 PM 27.0 °F - 8.1 °F 45% 30.22 in 10.0 mi Calm Calm - N/A   Clear
10:52 PM 27.0 °F 21.6 °F 7.0 °F 43% 30.28 in 10.0 mi North 4.6 mph - N/A   Clear
11:52 PM 26.1 °F 18.4 °F 7.0 °F 44% 30.31 in 10.0 mi North 6.9 mph - N/A   Clear